This demonstration page uses our WeatherBlox Daily Observations layout. Learn more.

Left ArrowRight Arrow

Hourly Observations for May 29, 2017

Temp ( °F °C ) Dew Point ( °F °C ) Humidity (%) Winds ( mph kmh ) Pressure ( in mb ) Visibility ( mi km ) Precip ( " mm )
12:15 am 00:15 Cloudy with Drizzle 64 18 64 18 100 100 ENE 3 6 29.83 1010 2 3 N/A
12:35 am 00:35 Cloudy with Mist and Fog 64 18 64 18 100 100 ESE 6 9 29.83 1010 2 3 N/A
12:55 am 00:55 Cloudy with Mist and Fog 64 18 64 18 100 100 ESE 5 7 29.83 1010 3 4 N/A
1:15 am 01:15 Cloudy with Mist and Fog 64 18 64 18 100 100 N N/A 29.83 1010 3 4 N/A
1:35 am 01:35 Cloudy with Mist and Fog 64 18 64 18 100 100 N N/A 29.83 1010 4 6 N/A
1:55 am 01:55 Cloudy with Mist and Fog 64 18 64 18 100 100 SE 3 6 29.83 1010 5 8 N/A
2:15 am 02:15 Cloudy with Mist and Fog 64 18 64 18 100 100 N N/A 29.83 1010 3 4 N/A
2:35 am 02:35 Cloudy with Mist and Fog 64 18 64 18 100 100 N N/A 29.83 1010 2 3 N/A
2:55 am 02:55 Cloudy with Light Rain 64 18 64 18 100 100 N N/A 29.83 1010 2 3 N/A
3:15 am 03:15 Cloudy with Mist and Fog 64 18 64 18 100 100 ESE 3 6 29.83 1010 3 4 N/A
3:35 am 03:35 Cloudy with Mist and Fog 64 18 64 18 100 100 N N/A 29.83 1010 2 3 N/A
3:55 am 03:55 Cloudy with Mist and Fog 64 18 64 18 100 100 SE 3 6 29.83 1010 1 2 N/A
4:15 am 04:15 Cloudy with Mist and Fog 64 18 64 18 100 100 N N/A 29.83 1010 1 2 N/A
4:35 am 04:35 Cloudy with Mist and Fog 64 18 64 18 100 100 N N/A 29.83 1010 1 1 N/A
4:55 am 04:55 Cloudy with Fog 64 18 64 18 100 100 N N/A 29.83 1010 1 1 N/A
5:15 am 05:15 Cloudy with Mist and Fog 64 18 64 18 100 100 N N/A 29.83 1010 1 1 N/A
5:35 am 05:35 Cloudy with Mist and Fog 64 18 64 18 100 100 N N/A 29.83 1010 1 1 N/A
5:55 am 05:55 Cloudy with Fog 64 18 64 18 100 100 N N/A 29.83 1010 1 1 N/A
6:15 am 06:15 Cloudy with Fog 64 18 64 18 100 100 N N/A 29.83 1010 0 0 N/A
6:35 am 06:35 Cloudy with Fog 64 18 64 18 100 100 N N/A 29.83 1010 0 0 N/A
6:55 am 06:55 Cloudy with Mist and Fog 64 18 64 18 100 100 ESE 3 6 29.83 1010 1 1 N/A
7:15 am 07:15 Cloudy with Mist and Fog 64 18 64 18 100 100 SE 3 6 29.85 1011 1 2 N/A
7:35 am 07:35 Cloudy with Mist and Fog 64 18 64 18 100 100 N N/A 29.85 1011 4 6 N/A
7:55 am 07:55 Cloudy with Mist and Fog 66 19 66 19 100 100 N N/A 29.85 1011 5 8 N/A
8:15 am 08:15 Cloudy with Mist and Fog 66 19 66 19 100 100 N N/A 29.88 1012 5 8 N/A
8:35 am 08:35 Cloudy 68 20 68 20 100 100 N N/A 29.88 1012 7 11 N/A
8:55 am 08:55 Cloudy 68 20 68 20 100 100 N N/A 29.88 1012 10 16 N/A
9:15 am 09:15 Cloudy 70 21 70 21 100 100 WSW 5 7 29.88 1012 10 16 N/A
9:35 am 09:35 Cloudy 72 22 70 21 94 94 N N/A 29.91 1013 10 16 N/A
9:55 am 09:55 Partly Cloudy 73 23 70 21 89 89 WNW 3 6 29.91 1013 10 16 N/A
10:15 am 10:15 Partly Cloudy 73 23 70 21 89 89 W 5 7 29.88 1012 10 16 N/A
10:35 am 10:35 Partly Cloudy 75 24 70 21 83 83 NW 3 6 29.88 1012 10 16 N/A
10:55 am 10:55 Partly Cloudy 77 25 64 18 65 65 NNW 9 15 29.88 1012 10 16 N/A
11:15 am 11:15 Partly Cloudy 77 25 66 19 69 69 NW 9 15 29.88 1012 10 16 N/A
11:35 am 11:35 Sunny 77 25 66 19 69 69 NNW 6 9 29.91 1013 10 16 N/A
11:55 am 11:55 Partly Cloudy 79 26 66 19 65 65 NW 6 9 29.91 1013 10 16 N/A
12:15 pm 12:15 Partly Cloudy 79 26 66 19 65 65 NW 13 20 29.91 1013 10 16 N/A
12:35 pm 12:35 Partly Cloudy 79 26 66 19 65 65 WNW 8 13 29.91 1013 10 16 N/A
12:55 pm 12:55 Mostly Cloudy 79 26 66 19 65 65 NNW 8 13 29.94 1014 10 16 N/A
1:15 pm 13:15 Partly Cloudy 81 27 68 20 66 66 NW 10 17 29.94 1014 10 16 N/A
1:35 pm 13:35 Partly Cloudy 81 27 66 19 62 62 WNW 13 20 29.94 1014 10 16 N/A
1:55 pm 13:55 Mostly Cloudy 81 27 66 19 62 62 WNW 10 17 29.94 1014 10 16 N/A
2:15 pm 14:15 Mostly Cloudy 81 27 64 18 58 58 NW 9 15 29.94 1014 10 16 N/A
2:35 pm 14:35 Partly Cloudy 81 27 64 18 58 58 WNW 10 17 29.94 1014 10 16 N/A
2:55 pm 14:55 Partly Cloudy 82 28 61 16 48 48 W 13 20 29.94 1014 10 16 N/A
3:15 pm 15:15 Partly Cloudy 82 28 61 16 48 48 NW 10 17 29.94 1014 10 16 N/A
3:35 pm 15:35 Partly Cloudy 81 27 61 16 51 51 WNW 7 11 29.94 1014 10 16 N/A
3:55 pm 15:55 Partly Cloudy 82 28 61 16 48 48 NW 12 19 29.94 1014 10 16 N/A
4:15 pm 16:15 Sunny 82 28 61 16 48 48 WSW 7 11 29.97 1015 10 16 N/A
4:35 pm 16:35 Sunny 81 27 61 16 51 51 W 7 11 29.97 1015 10 16 N/A
4:55 pm 16:55 Partly Cloudy 81 27 61 16 51 51 NW 12 19 29.97 1015 10 16 N/A
5:15 pm 17:15 Sunny 81 27 59 15 48 48 W 9 15 29.97 1015 10 16 N/A
5:35 pm 17:35 Sunny 81 27 61 16 51 51 WNW 3 6 29.97 1015 10 16 N/A
5:55 pm 17:55 Sunny 81 27 61 16 51 51 W 5 7 29.97 1015 10 16 N/A
6:15 pm 18:15 Sunny 81 27 61 16 51 51 N N/A 29.97 1015 10 16 N/A
6:35 pm 18:35 Sunny 81 27 63 17 54 54 N N/A 29.97 1015 10 16 N/A
6:55 pm 18:55 Sunny 81 27 61 16 51 51 N N/A 29.97 1015 10 16 N/A
7:15 pm 19:15 Sunny 81 27 63 17 54 54 N N/A 29.97 1015 10 16 N/A
7:35 pm 19:35 Sunny 79 26 63 17 58 58 N N/A 29.97 1015 10 16 N/A
7:55 pm 19:55 Sunny 79 26 63 17 58 58 N N/A 29.97 1015 10 16 N/A
8:15 pm 20:15 Sunny 77 25 63 17 61 61 N N/A 29.97 1015 10 16 N/A
8:35 pm 20:35 Clear 73 23 61 16 65 65 N N/A 29.97 1015 10 16 N/A
8:55 pm 20:55 Clear 72 22 64 18 78 78 N N/A 29.97 1015 10 16 N/A
9:15 pm 21:15 Clear 72 22 64 18 78 78 NNW 3 6 29.97 1015 10 16 N/A
9:35 pm 21:35 Clear 70 21 64 18 83 83 N N/A 30.00 1016 10 16 N/A
9:55 pm 21:55 Clear 72 22 64 18 78 78 N N/A 30.00 1016 10 16 N/A
10:15 pm 22:15 Clear 68 20 64 18 88 88 N N/A 30.00 1016 10 16 N/A
10:35 pm 22:35 Clear 72 22 63 17 73 73 SE 6 9 30.03 1017 10 16 N/A
10:55 pm 22:55 Clear 72 22 64 18 78 78 SE 6 9 30.03 1017 10 16 N/A
11:15 pm 23:15 Clear 72 22 64 18 78 78 SE 5 7 30.03 1017 10 16 N/A
11:35 pm 23:35 Clear 70 21 64 18 83 83 SE 3 6 30.03 1017 10 16 N/A
11:55 pm 23:55 Clear 70 21 64 18 83 83 N N/A 30.03 1017 10 16 N/A

Powered by AerisWeather